Tekamah, NE

6:41 AM CDT on September 23, 2017 (GMT -0500)
Tekamah

Weather History for KTQE - October, 2012

Change the Weather History Date:

Wednesday, October 17, 2012

  Actual Average Record
Temperature  
Mean Temperature 56 °F -  
Max Temperature 66 °F 65 °F 86 °F (1961)
Min Temperature 48 °F 39 °F 20 °F (1976)
Degree Days  
Heating Degree Days 9    
Growing Degree Days 6 (Base 50)    
Moisture  
Dew Point 37 °F    
Average Humidity 46    
Maximum Humidity 84    
Minimum Humidity 27    
Precipitation  
Precipitation 0.03 in - - ()
Sea Level Pressure  
Sea Level Pressure 29.44 in    
Wind  
Wind Speed 15 mph (WNW)    
Max Wind Speed 31 mph    
Max Gust Speed 41 mph    
Visibility 9 miles    
Events Rain    
Averages and records for this station are not official NWS values.
T = Trace of Precipitation, MM = Missing Value Source: NWS Daily Summary

Daily Weather History Graph

Daily Weather History Graph

Search for Another Location

Airport or City:

Trip Planner

Search our weather history database for the weather conditions in past years. The results will help you decide how hot, cold, wet, or windy it might be!

Date:

Astronomy

Oct. 17, 2012 Rise Set
Actual Time 7:39 AM CDT 6:39 PM CDT
Civil Twilight 7:11 AM CDT 7:07 PM CDT
Nautical Twilight 6:39 AM CDT 7:39 PM CDT
Astronomical Twilight 6:07 AM CDT 8:11 PM CDT
Moon 10:17 AM CDT (10/17) 8:13 PM CDT (10/17)
Length of Visible Light 11h 55m
Length of Day
10h 59m
Waxing Crescent, 7% of the Moon is Illuminated
Oct 17
Waxing Crescent
Oct 21
First Quarter
Oct 29
Full
Nov 6
Last Quarter
Nov 13
New

Hourly Weather History & Observations

Time (CDT) Temp. Dew Point Humidity Pressure Visibility Wind Dir Wind Speed Gust Speed Precip Events Conditions
12:54 AM 61.0 °F 46.0 °F 58% 29.34 in 10.0 mi SSE 6.9 mph - N/A   Partly Cloudy
1:54 AM 62.1 °F 46.9 °F 58% 29.30 in 10.0 mi SSE 11.5 mph - N/A   Clear
2:54 AM 61.0 °F 46.9 °F 60% 29.29 in 10.0 mi SSE 6.9 mph - N/A   Clear
3:54 AM 64.9 °F 46.9 °F 52% 29.26 in 10.0 mi SSW 12.7 mph - N/A   Clear
4:54 AM 64.9 °F 46.0 °F 50% 29.29 in 10.0 mi West 16.1 mph 23.0 mph N/A   Clear
5:06 AM 64.4 °F 46.4 °F 52% 29.34 in 9.0 mi WNW 20.7 mph 33.4 mph N/A   Clear
5:54 AM 63.0 °F 46.9 °F 56% 29.34 in 10.0 mi WNW 19.6 mph 32.2 mph N/A   Clear
6:54 AM 64.0 °F 48.0 °F 56% 29.38 in 10.0 mi WNW 23.0 mph 28.8 mph 0.00 in Rain Light Rain
7:54 AM 55.9 °F 51.1 °F 84% 29.40 in 10.0 mi WNW 8.1 mph - 0.03 in   Mostly Cloudy
8:54 AM 57.0 °F 46.9 °F 69% 29.42 in 10.0 mi WNW 10.4 mph - N/A   Mostly Cloudy
9:54 AM 57.0 °F 39.0 °F 51% 29.48 in 10.0 mi WNW 19.6 mph 24.2 mph N/A   Overcast
10:54 AM 59.0 °F 37.0 °F 44% 29.48 in 10.0 mi WNW 16.1 mph - N/A   Clear
11:54 AM 61.0 °F 36.0 °F 39% 29.48 in 10.0 mi WNW 28.8 mph 38.0 mph N/A   Clear
12:54 PM 60.1 °F 37.0 °F 42% 29.49 in 10.0 mi WNW 25.3 mph 36.8 mph N/A   Scattered Clouds
1:54 PM 60.1 °F 36.0 °F 41% 29.47 in 10.0 mi WNW 27.6 mph 41.4 mph N/A   Overcast
2:54 PM 59.0 °F 34.0 °F 39% 29.47 in 10.0 mi WNW 31.1 mph 40.3 mph N/A   Overcast
3:54 PM 59.0 °F 32.0 °F 36% 29.47 in 10.0 mi WNW 24.2 mph 39.1 mph N/A   Overcast
4:54 PM 60.1 °F 30.0 °F 32% 29.48 in 10.0 mi WNW 27.6 mph 39.1 mph N/A   Overcast
5:54 PM 55.9 °F 28.9 °F 36% 29.51 in 8.0 mi NNW 23.0 mph 28.8 mph N/A   Mostly Cloudy
6:54 PM 55.0 °F 30.0 °F 38% 29.53 in 9.0 mi WNW 9.2 mph - N/A   Partly Cloudy
7:54 PM 55.9 °F 21.9 °F 27% 29.55 in 6.0 mi NW 16.1 mph - N/A   Haze
8:54 PM 54.0 °F 21.0 °F 28% 29.55 in 7.0 mi WNW 9.2 mph - N/A   Overcast
9:54 PM 48.0 °F 21.9 °F 36% 29.55 in 6.0 mi West 10.4 mph - N/A   Haze
10:54 PM 48.9 °F 21.0 °F 33% 29.55 in 10.0 mi West 12.7 mph - N/A   Partly Cloudy
11:54 PM 48.9 °F 21.9 °F 35% 29.53 in 10.0 mi West 16.1 mph - N/A   Scattered Clouds